Location: Stonelick Lake State Park
(39.2170°N, 84.0850°W)
Time: 00:07:07
(UTC-05:00)

Daily predictions for brighter satellites

Satellite Brightness Start Highest point End
(mag) Time Altitude Azimuth Time Altitude Azimuth Time Altitude Azimuth
ADEOS II 4.3 03:50:33 10° NE 03:52:50 22° NE 03:52:50 22° NE
Cosmos 2369 Rocket 4.0 03:58:18 27° NE 03:58:18 27° NE 04:01:02 10° NE
ATLAS CENTAUR R/B 4.0 03:57:39 50° ENE 03:57:39 50° ENE 04:09:24 10° ESE
USA 234 3.8 04:01:50 10° NE 04:07:05 53° E 04:07:05 53° E
Lacrosse 5 3.6 04:21:27 29° E 04:21:27 29° E 04:24:41 10° ENE
ATLAS 5 CENTAUR R/B 2.8 04:40:35 44° ENE 04:40:35 44° ENE 04:44:15 10° NE
CZ-4B R/B 3.8 04:39:18 10° NNE 04:43:24 51° N 04:43:24 51° N
Cosmos 1943 Rocket 2.5 04:46:12 55° SE 04:46:47 59° ESE 04:52:13 10° NNE
Cosmos 1624 Rocket 4.1 05:07:58 61° NNW 05:07:58 61° NNW 05:12:40 10° NNE
Cosmos 2056 Rocket 3.5 05:09:11 63° NNW 05:09:11 63° NNW 05:13:46 10° NNE
Nadezhda 2 Rocket 4.4 05:06:08 10° N 05:12:16 84° E 05:18:24 10° S
COSMO-SKYMED 1 4.5 05:10:08 10° SE 05:13:55 30° ENE 05:17:43 10° N
Cosmos 2266 Rocket 3.9 05:10:43 10° NNW 05:16:41 54° W 05:22:32 10° SSW
Cosmos 972 Rocket 4.3 05:22:16 46° NW 05:22:16 46° NW 05:26:51 10° N
Meteor 1-31 Rocket 2.8 05:19:47 10° N 05:23:13 67° N 05:23:13 67° N
Feng Yun 1-1 Rocket 4.3 05:28:08 10° N 05:34:00 76° WNW 05:39:55 10° SSW
Thor Agena Rocket 3.4 05:29:34 10° S 05:34:48 79° WSW 05:40:00 10° NNW
ADEOS II 3.0 05:30:13 10° N 05:33:48 29° NW 05:33:48 29° NW
Cosmos 1417 Rocket 4.5 05:29:51 10° S 05:36:02 83° E 05:42:12 10° N
CZ-4B R/B 3.8 05:34:30 10° N 05:38:23 59° WNW 05:39:08 49° WSW
Cosmos 2369 Rocket 3.3 05:40:07 26° NW 05:40:07 26° NW 05:44:35 10° N
Sich 1 Rocket 3.6 05:35:39 10° NNW 05:40:07 56° W 05:44:29 10° S
Tiangong 1 1.0 05:43:28 66° SSE 05:43:28 66° SSE 05:46:21 10° ENE
Okean 1-7 3.0 05:41:04 10° S 05:45:21 85° E 05:49:38 10° N
Cosmos 1908 Rocket 3.7 05:43:03 10° NNW 05:47:21 48° W 05:51:39 10° SSW
Okean-O 2.9 05:43:24 10° N 05:47:38 44° WNW 05:49:14 31° WSW
CZ-4C R/B 2.1 05:45:06 12° SSW 05:49:54 84° ESE 05:55:47 10° NE
Cosmos 1452 Rocket 3.4 05:44:46 10° SSW 05:50:01 72° WNW 05:55:20 10° NNE
USA 234 3.8 05:45:04 10° NE 05:51:06 41° NNW 05:54:27 24° W
Cosmos 1782 Rocket 3.4 05:48:19 10° N 05:52:48 75° W 05:57:13 10° S
Cosmos 1656 Rocket 3.6 05:49:43 10° SSW 05:55:24 81° WNW 06:01:08 10° NNE
Cosmos 1833 4.3 05:54:54 10° NNW 06:00:19 52° WSW 06:05:43 10° S
SKYMED 2 3.4 05:57:32 10° S 06:01:52 78° WSW 06:06:13 10° NNW
Lacrosse 5 2.4 06:00:42 25° W 06:03:01 40° NW 06:07:48 10° NNE
Cosmos 1023 Rocket 4.5 05:58:35 10° NNW 06:03:51 90° ENE 06:09:07 10° SSE
Lacrosse 5 rocket 3.9 06:04:12 10° NNE 06:04:50 10° NNE 06:05:29 10° NE
Cosmos 407 Rocket 4.2 06:05:02 10° NW 06:09:47 33° W 06:14:28 10° SSW
USA 81 4.1 06:05:42 10° S 06:10:58 84° E 06:16:16 10° N
Cosmos 676 Rocket 4.3 06:07:21 10° NNW 06:12:24 45° WSW 06:17:26 10° S
Okean 2 Rocket 3.0 06:08:16 10° NNW 06:12:36 60° W 06:16:55 10° S
ATLAS 3B R/B 3.6 06:10:28 10° SSW 06:17:53 60° ESE 06:25:06 10° NE
Radarsat Rocket 4.3 06:10:41 10° N 06:17:57 66° WNW 06:24:20 10° SSW
S3M 4.1 06:17:12 10° SSW 06:23:25 54° W 06:29:35 10° N
ATLAS 5 CENTAUR R/B 3.4 06:22:11 15° WNW 06:24:27 20° NW 06:28:11 10° N
Cosmos 1782 2.7 06:21:29 10° SSW 06:25:24 64° W 06:29:22 10° N
Meteor 1-20 Rocket 4.2 06:19:51 10° NNW 06:25:32 68° W 06:31:04 10° S
Meteor 1-28 Rocket 3.4 06:25:18 10° S 06:28:53 47° W 06:32:30 10° NNW
Cosmos 1943 Rocket 3.5 06:27:48 13° W 06:30:56 20° NW 06:34:57 10° N
Cosmos 2151 Rocket 3.6 06:27:00 10° N 06:31:32 83° W 06:36:00 10° S
Cosmos 1553 Rocket 4.3 06:26:09 10° SSW 06:31:58 44° WNW 06:37:57 10° N
Meteor 2-10 Rocket 4.4 06:28:11 10° SW 06:32:15 25° WNW 06:36:21 10° NNW
Cosmos 1140 Rocket 3.7 06:28:37 10° NNW 06:33:38 48° WSW 06:38:38 10° S
Cosmos 1607 4.2 06:30:02 10° SSW 06:36:06 74° ESE 06:42:16 10° NE
Cosmos 1633 3.2 06:34:30 10° N 06:38:06 59° E 06:41:40 10° SSE
Cosmos 1602 4.2 06:40:41 10° N 06:44:38 69° E 06:48:34 10° SSE
Cosmos 614 Rocket 4.2 06:39:59 10° NNW 06:44:54 49° WSW 06:49:49 10° S
CSL-04 Rocket 3.7 06:42:24 10° N 06:47:43 64° WNW 06:53:05 10° SSW
COSMO-SKYMED 1 3.8 06:46:42 10° SW 06:50:04 22° W 06:53:28 10° NW
Cosmos 1606 3.2 06:46:54 10° SSW 06:50:32 40° W 06:54:13 10° N
Meteor 2-6 Rocket 4.2 06:47:40 10° SSW 06:52:56 54° WNW 06:58:14 10° N
IDEFIX/ARIANE 42P 2.6 06:48:13 10° NNE 06:53:29 90° NW 06:58:41 10° SSW
CZ-4 R/B 1.5 06:50:06 10° NNE 06:54:18 88° E 06:58:24 10° SSW
PAYLOAD A 3.9 06:49:45 10° N 06:54:24 59° WNW 06:59:08 10° SSW
Cosmos 1850 Rocket 4.3 06:49:16 10° NNW 06:54:24 50° WSW 06:59:29 10° S
